Home   Weather   Independence   Past weeks

Flag for USA Past Weather in Independence, Missouri, USA — Yesterday and Last 2 Weeks

Now
63 °F

Sunny.


Feels Like: 63 °F
Forecast: 50 / 76 °F
Wind: 13 mph from South

Location: Lee's Summit Municipal Airport

Current Time: Feb 22, 2017 at 11:38:49 am

Latest Report: Feb 22, 2017 at 10:53 am


Visibility: 10 mi

Pressure: 29.75 "Hg

Humidity: 58%

Dew Point: 48 °F

Location of IndependenceLocation

Past Weather in Independence — Graph

°F

Independence Temperature Yesterday

Maximum temperature yesterday: 71 °F (at 3:53 pm)
Minimum temperature yesterday: 49 °F (at 6:53 am)
Average temperature yesterday: 59 °F

High & Low Weather Summary for the Past Weeks

 TemperatureHumidityPressure
High75 °F (Feb 17, 2:53 pm)100% (Feb 7, 9:20 am)30.50 "Hg (Feb 7, 9:20 am)
Low16 °F (Feb 9, 2:53 am)19% (Feb 16, 1:53 pm)29.64 "Hg (Feb 7, 9:20 am)
Average49 °F60%29.97 "Hg
* Reported Feb 7 9:20 am — Feb 22 9:53 am, Independence, Weather by CustomWeather, © 2017

Note: Actual official high and low records may vary slightly from our data, if they occured in-between our weather recording intervals... More about our weather records

Advertising

Independence Weather History for the Previous 24 Hours

Scroll right to see more
 ConditionsComfort  
Time TempWeatherWind HumidityBarometerVisibility
9:53 am
Wed, Feb 22
62 °FSunny.20 mph58%29.76 "Hg10 mi
8:53 am58 °FSunny.14 mph67%29.78 "Hg10 mi
7:53 am52 °FSunny.14 mph80%29.79 "Hg10 mi
6:53 am52 °FClear.13 mph77%29.79 "Hg10 mi
5:53 am50 °FClear.10 mph83%29.81 "Hg10 mi
4:53 am50 °FClear.9 mph83%29.81 "Hg10 mi
3:53 am51 °FClear.12 mph83%29.80 "Hg10 mi
2:53 am52 °FClear.8 mph80%29.82 "Hg10 mi
1:53 am54 °FClear.9 mph74%29.84 "Hg10 mi
12:53 am53 °FClear.10 mph77%29.85 "Hg10 mi
11:53 pm
Tue, Feb 21
54 °FClear.5 mph72%29.87 "Hg10 mi
10:53 pm54 °FClear.8 mph72%29.88 "Hg10 mi
9:53 pm57 °FClear.7 mph67%29.89 "Hg10 mi
8:53 pm60 °FClear.6 mph58%29.89 "Hg10 mi
7:53 pm62 °FClear.6 mph54%29.90 "Hg10 mi
6:53 pm65 °FClear.No wind44%29.90 "Hg10 mi
5:53 pm67 °FSunny.No wind41%29.89 "Hg10 mi
4:53 pm70 °FSunny.7 mph41%29.89 "Hg10 mi
3:53 pm71 °FSunny.3 mph42%29.89 "Hg10 mi
2:53 pm70 °FSunny.No wind46%29.90 "Hg10 mi
1:53 pm69 °FSunny.6 mph51%29.91 "Hg10 mi
12:53 pm66 °FSunny.6 mph59%29.95 "Hg10 mi
11:53 am64 °FSunny.6 mph63%29.97 "Hg10 mi
Weather by CustomWeather, © 2017

See weather overviewHow to use our weather pages